User: anonymous   Login
Location: Vancouver
(49.2500°N, 123.1330°W)
Time: 18:43:57
(UTC-07:00)
Language:

BREEZE-M DEB (TANK) - Orbit

View from above orbital plane
View from above orbital plane
View from above satellite
View from above satellite

Ground track
Ground track

The orbit data is extracted from the following two-line orbital elements,

1 27821U 03024B   16151.75026859 +.00006777 +00000-0 +58146-3 0  9999
2 27821 049.5595 257.3022 4963190 098.5578 318.4622 05.73025845258475
Epoch (UTC): 30 May 2016 18:00:23
Eccentricity: 0.4963190
inclination: 49.5595°
perigee height: 266 km
apogee height: 13360 km
right ascension of ascending node: 257.3022°
argument of perigee: 98.5578°
revolutions per day: 5.73025845
mean anomaly at epoch: 318.4622°
orbit number at epoch: 25847

The dashed part of the orbit path shows where the satellite is in the earth's shadow,  

DLR